User: anonymous   Login
Location: Unspecified
(0.0000°N, 0.0000°E)
Time: 22:34:22
(UTC+00:00)
Language:

PAKSAT 1R - Orbit

View from above orbital plane
View from above orbital plane
View from above satellite
View from above satellite

Ground track
Ground track

The orbit data is extracted from the following two-line orbital elements,

1 37779U 11042A   17085.81720987 +.00000140 +00000-0 +00000-0 0  9999
2 37779 000.0438 350.9699 0003993 014.1218 151.5257 01.00272164020698
Epoch (UTC): 26 March 2017 19:36:46
Eccentricity: 0.0003993
inclination: 0.0438°
perigee height: 35769 km
apogee height: 35803 km
right ascension of ascending node: 350.9699°
argument of perigee: 14.1218°
revolutions per day: 1.00272164
mean anomaly at epoch: 151.5257°
orbit number at epoch: 2069

The dashed part of the orbit path shows where the satellite is in the earth's shadow,  

DLR